When you browse on this site, cookies collect data to enhance your experience and personalize the content and advertising you see.
Visit our Privacy Policy to learn more. By continuing to use the site, you agree to this use of cookies and data.
  • En España
  • Lista de países
  • Para 7 días
  • Temperatura del agua
  • El tiempo en el mapa
  • Informadores
  • user-avatar
    Iniciar sesión

    Tiempo cada hora Canillo

    Hoy, 19 Octubre, Sábado

    Tiempo Temperatura Precipitaciones Viento Presión Humedad
    00:00 +7°C° 0.1 mm 2 mps 615 mmHg 89%
    01:00 +7°C° 0.1 mm 2 mps 614 mmHg 90%
    02:00 +7°C° 0.1 mm 2 mps 614 mmHg 91%
    03:00 +7°C° 0.1 mm 2 mps 614 mmHg 92%
    04:00 +6°C° 0 mm 2 mps 613 mmHg 93%
    05:00 +6°C° 0 mm 2 mps 613 mmHg 93%
    06:00 +5°C° 0 mm 2 mps 613 mmHg 93%
    07:00 +7°C° 0 mm 2 mps 613 mmHg 86%
    08:00 +8°C° 0 mm 3 mps 614 mmHg 80%
    09:00 +9°C° 0 mm 3 mps 615 mmHg 73%
    10:00 +10°C° 0 mm 3 mps 615 mmHg 69%
    11:00 +11°C° 0 mm 3 mps 615 mmHg 65%
    12:00 +12°C° 0 mm 3 mps 615 mmHg 61%
    13:00 +11°C° 0 mm 3 mps 614 mmHg 64%
    14:00 +11°C° 0 mm 3 mps 613 mmHg 67%
    15:00 +11°C° 0 mm 3 mps 613 mmHg 70%
    16:00 +10°C° 0.1 mm 3 mps 612 mmHg 76%
    17:00 +9°C° 0.1 mm 3 mps 612 mmHg 82%
    18:00 +8°C° 0.1 mm 2 mps 611 mmHg 88%
    19:00 +8°C° 0.3 mm 3 mps 612 mmHg 90%
    20:00 +8°C° 0.3 mm 3 mps 612 mmHg 91%
    21:00 +8°C° 0.3 mm 3 mps 612 mmHg 92%
    22:00 +8°C° 0.2 mm 3 mps 612 mmHg 92%
    23:00 +7°C° 0.2 mm 4 mps 611 mmHg 92%

    Mañana, 20 Octubre, Domingo

    Tiempo Temperatura Precipitaciones Viento Presión Humedad
    00:00 +6°C° 0.2 mm 4 mps 611 mmHg 92%
    01:00 +6°C° 0.1 mm 4 mps 611 mmHg 91%
    02:00 +6°C° 0.1 mm 4 mps 610 mmHg 90%
    03:00 +6°C° 0.1 mm 4 mps 610 mmHg 89%
    04:00 +6°C° 1.2 mm 4 mps 610 mmHg 91%
    05:00 +7°C° 1.2 mm 3 mps 610 mmHg 92%
    06:00 +7°C° 1.2 mm 3 mps 610 mmHg 93%
    07:00 +7°C° 5.4 mm 3 mps 610 mmHg 94%
    08:00 +5°C° 5.4 mm 3 mps 610 mmHg 94%
    09:00 +5°C° 5.4 mm 3 mps 610 mmHg 94%
    10:00 +6°C° 0.3 mm 4 mps 611 mmHg 86%
    11:00 +7°C° 0.3 mm 4 mps 611 mmHg 78%
    12:00 +9°C° 0.3 mm 5 mps 612 mmHg 69%
    13:00 +8°C° 0 mm 4 mps 612 mmHg 65%
    14:00 +8°C° 0 mm 4 mps 612 mmHg 62%
    15:00 +8°C° 0 mm 3 mps 612 mmHg 58%
    16:00 +5°C° 0 mm 3 mps 612 mmHg 67%
    17:00 +4°C° 0 mm 2 mps 612 mmHg 77%
    18:00 +2°C° 0 mm 2 mps 612 mmHg 86%
    19:00 +2°C° 0 mm 2 mps 613 mmHg 85%
    20:00 +3°C° 0 mm 1 mps 613 mmHg 84%
    21:00 +3°C° 0 mm 1 mps 614 mmHg 83%
    22:00 +3°C° 0 mm 1 mps 614 mmHg 84%
    23:00 +2°C° 0 mm 1 mps 614 mmHg 85%

    Pasado mañana, 21 Octubre, Lunes

    Tiempo Temperatura Precipitaciones Viento Presión Humedad
    00:00 +2°C° 0 mm 1 mps 614 mmHg 85%
    01:00 +2°C° 0 mm 1 mps 615 mmHg 84%
    02:00 +3°C° 0 mm 1 mps 615 mmHg 83%
    03:00 +3°C° 0 mm 1 mps 615 mmHg 82%
    04:00 +2°C° 0 mm 1 mps 615 mmHg 84%
    05:00 +2°C° 0 mm 1 mps 615 mmHg 86%
    06:00 +1°C° 0 mm 1 mps 615 mmHg 88%
    07:00 +3°C° 0 mm 1 mps 616 mmHg 82%
    08:00 +4°C° 0 mm 1 mps 617 mmHg 76%
    09:00 +6°C° 0 mm 1 mps 618 mmHg 70%
    10:00 +6°C° 0.1 mm 1 mps 618 mmHg 69%
    11:00 +7°C° 0.1 mm 1 mps 618 mmHg 69%
    12:00 +7°C° 0.1 mm 1 mps 619 mmHg 68%
    13:00 +7°C° 0.2 mm 1 mps 618 mmHg 72%
    14:00 +6°C° 0.2 mm 1 mps 618 mmHg 75%
    15:00 +6°C° 0.2 mm 1 mps 618 mmHg 79%
    16:00 +5°C° 0.1 mm 1 mps 618 mmHg 83%
    17:00 +3°C° 0.1 mm 0 mps 618 mmHg 88%
    18:00 +2°C° 0.1 mm 0 mps 617 mmHg 92%
    19:00 +2°C° 0 mm 0 mps 617 mmHg 93%
    20:00 +2°C° 0 mm 1 mps 617 mmHg 93%
    21:00 +2°C° 0 mm 1 mps 617 mmHg 93%
    22:00 +2°C° 0 mm 1 mps 617 mmHg 93%
    23:00 +2°C° 0 mm 1 mps 617 mmHg 92%

    22 Octubre, Martes

    Tiempo Temperatura Precipitaciones Viento Presión Humedad
    00:00 +2°C° 0 mm 1 mps 617 mmHg 91%
    01:00 +2°C° 0 mm 1 mps 617 mmHg 90%
    02:00 +2°C° 0 mm 1 mps 617 mmHg 88%
    03:00 +2°C° 0 mm 1 mps 617 mmHg 87%
    04:00 +2°C° 0 mm 1 mps 617 mmHg 87%
    05:00 +1°C° 0 mm 2 mps 617 mmHg 87%
    06:00 +2°C° 0 mm 2 mps 617 mmHg 88%
    07:00 +2°C° 0.1 mm 2 mps 617 mmHg 86%
    08:00 +3°C° 0.1 mm 2 mps 617 mmHg 85%
    09:00 +3°C° 0.1 mm 2 mps 617 mmHg 84%
    10:00 +4°C° 0.3 mm 2 mps 617 mmHg 83%
    11:00 +4°C° 0.3 mm 2 mps 617 mmHg 83%
    12:00 +6°C° 0.3 mm 1 mps 617 mmHg 82%
    13:00 +6°C° 0.2 mm 1 mps 616 mmHg 82%
    14:00 +5°C° 0.2 mm 2 mps 616 mmHg 82%
    15:00 +5°C° 0.2 mm 2 mps 616 mmHg 83%
    16:00 +5°C° 0.1 mm 2 mps 615 mmHg 86%
    17:00 +4°C° 0.1 mm 2 mps 615 mmHg 89%
    18:00 +3°C° 0.1 mm 2 mps 614 mmHg 92%
    19:00 +3°C° 0 mm 2 mps 614 mmHg 91%
    20:00 +3°C° 0 mm 2 mps 614 mmHg 91%
    21:00 +4°C° 0 mm 2 mps 614 mmHg 91%
    22:00 +5°C° 0.9 mm 1 mps 614 mmHg 92%
    23:00 +5°C° 0.9 mm 1 mps 614 mmHg 93%

    23 Octubre, Miércoles

    Tiempo Temperatura Precipitaciones Viento Presión Humedad
    00:00 +6°C° 0.9 mm 1 mps 614 mmHg 95%
    01:00 +6°C° 0.9 mm 1 mps 614 mmHg 95%
    02:00 +5°C° 0.9 mm 2 mps 613 mmHg 95%
    03:00 +5°C° 0.9 mm 2 mps 613 mmHg 95%
    04:00 +5°C° 2 mm 2 mps 612 mmHg 95%
    05:00 +5°C° 2 mm 2 mps 612 mmHg 96%
    06:00 +4°C° 2 mm 3 mps 612 mmHg 96%
    07:00 +5°C° 3.2 mm 2 mps 612 mmHg 97%
    08:00 +6°C° 3.2 mm 2 mps 612 mmHg 97%
    09:00 +6°C° 3.2 mm 2 mps 612 mmHg 97%
    10:00 +6°C° 3.4 mm 2 mps 611 mmHg 96%
    11:00 +5°C° 3.4 mm 3 mps 611 mmHg 96%
    12:00 +5°C° 3.4 mm 3 mps 611 mmHg 95%
    13:00 +5°C° 4.1 mm 3 mps 610 mmHg 96%
    14:00 +5°C° 4.1 mm 3 mps 609 mmHg 96%
    15:00 +5°C° 4.1 mm 3 mps 609 mmHg 97%
    16:00 +4°C° 10.1 mm 3 mps 609 mmHg 96%
    17:00 +3°C° 10.1 mm 3 mps 608 mmHg 96%
    18:00 +2°C° 10.1 mm 3 mps 608 mmHg 96%
    19:00 +2°C° 1.1 mm 3 mps 608 mmHg 96%
    20:00 +2°C° 1.1 mm 3 mps 609 mmHg 96%
    21:00 +2°C° 1.1 mm 3 mps 609 mmHg 96%
    22:00 +3°C° 0.5 mm 2 mps 609 mmHg 96%
    23:00 +3°C° 0.5 mm 2 mps 609 mmHg 96%

    24 Octubre, Jueves

    Tiempo Temperatura Precipitaciones Viento Presión Humedad
    00:00 +3°C° 0.5 mm 2 mps 609 mmHg 96%
    01:00 +3°C° 0.2 mm 2 mps 609 mmHg 96%
    02:00 +3°C° 0.2 mm 2 mps 609 mmHg 96%
    03:00 +3°C° 0.2 mm 2 mps 610 mmHg 96%
    04:00 +3°C° 0 mm 2 mps 610 mmHg 95%
    05:00 +3°C° 0 mm 2 mps 610 mmHg 95%
    06:00 +3°C° 0 mm 2 mps 610 mmHg 94%
    07:00 +4°C° 0 mm 2 mps 611 mmHg 92%
    08:00 +5°C° 0 mm 2 mps 612 mmHg 90%
    09:00 +6°C° 0 mm 2 mps 613 mmHg 88%
    10:00 +7°C° 0 mm 2 mps 614 mmHg 85%
    11:00 +8°C° 0 mm 2 mps 615 mmHg 82%
    12:00 +8°C° 0 mm 2 mps 615 mmHg 79%
    13:00 +8°C° 0.1 mm 2 mps 615 mmHg 80%
    14:00 +8°C° 0.1 mm 2 mps 615 mmHg 81%
    15:00 +8°C° 0.1 mm 2 mps 615 mmHg 82%
    16:00 +6°C° 0 mm 2 mps 615 mmHg 86%
    17:00 +5°C° 0 mm 2 mps 615 mmHg 90%
    18:00 +4°C° 0 mm 2 mps 615 mmHg 94%
    19:00 +4°C° 0 mm 2 mps 615 mmHg 94%
    20:00 +4°C° 0 mm 2 mps 616 mmHg 94%
    21:00 +4°C° 0 mm 2 mps 616 mmHg 94%
    22:00 +4°C° 0 mm 2 mps 616 mmHg 93%
    23:00 +4°C° 0 mm 2 mps 616 mmHg 93%
    Mostrar más